TimePST,TemperatureF,Dew PointF,Humidity,Sea Level PressureIn,VisibilityMPH,Wind Direction,Wind SpeedMPH,Gust SpeedMPH,PrecipitationIn,Events,Conditions,WindDirDegrees,DateUTC
12:15 AM,39.2,37.4,93,30.16,10.0,East,4.6,-,N/A,,Clear,80,2013-01-05 08:15:00
12:35 AM,39.2,37.4,93,30.16,10.0,Calm,Calm,-,N/A,,Clear,0,2013-01-05 08:35:00
12:55 AM,39.2,37.4,93,30.16,10.0,Calm,Calm,-,N/A,,Clear,0,2013-01-05 08:55:00
1:15 AM,39.2,37.4,93,30.15,10.0,Calm,Calm,-,N/A,,Clear,0,2013-01-05 09:15:00
1:35 AM,39.2,37.4,93,30.14,10.0,East,5.8,-,N/A,,Clear,80,2013-01-05 09:35:00
2:15 AM,39.2,37.4,93,30.16,10.0,Calm,Calm,-,N/A,,Clear,0,2013-01-05 10:15:00
2:35 AM,39.2,37.4,93,30.16,10.0,Calm,Calm,-,N/A,,Clear,0,2013-01-05 10:35:00
2:55 AM,39.2,39.2,100,30.16,10.0,Calm,Calm,-,N/A,,Clear,0,2013-01-05 10:55:00
3:15 AM,39.2,39.2,100,30.17,10.0,Calm,Calm,-,N/A,,Clear,0,2013-01-05 11:15:00
3:35 AM,39.2,39.2,100,30.17,9.0,Calm,Calm,-,N/A,Rain,Light Rain,0,2013-01-05 11:35:00
3:55 AM,39.2,39.2,100,30.16,7.0,Calm,Calm,-,N/A,Rain,Light Rain,0,2013-01-05 11:55:00
4:15 AM,39.2,39.2,100,30.16,5.0,Calm,Calm,-,N/A,Rain,Light Rain,0,2013-01-05 12:15:00
4:35 AM,39.2,39.2,100,30.16,8.0,Calm,Calm,-,N/A,Rain,Light Rain,0,2013-01-05 12:35:00
4:55 AM,39.2,39.2,100,30.16,7.0,Calm,Calm,-,N/A,Rain,Rain,0,2013-01-05 12:55:00
5:15 AM,39.2,39.2,100,30.16,8.0,Calm,Calm,-,N/A,Rain,Light Rain,0,2013-01-05 13:15:00
5:35 AM,39.2,39.2,100,30.16,7.0,Calm,Calm,-,N/A,Rain,Light Rain,0,2013-01-05 13:35:00
6:15 AM,39.2,37.4,93,30.17,7.0,Calm,Calm,-,N/A,Rain,Light Rain,0,2013-01-05 14:15:00
6:35 AM,39.2,37.4,93,30.17,8.0,North,-9999.0,-,N/A,Rain,Light Rain,0,2013-01-05 14:35:00
7:15 AM,39.2,37.4,93,30.17,7.0,East,4.6,-,N/A,Rain,Light Rain,90,2013-01-05 15:15:00
7:35 AM,39.2,37.4,93,30.16,7.0,East,5.8,-,N/A,Rain,Light Rain,90,2013-01-05 15:35:00
7:55 AM,39.2,37.4,93,30.16,5.0,ENE,5.8,-,0.01,Rain,Rain,70,2013-01-05 15:55:00
8:15 AM,39.2,37.4,93,30.16,5.0,ENE,3.5,-,N/A,Rain,Light Rain,60,2013-01-05 16:15:00
8:35 AM,39.2,37.4,93,30.16,6.0,East,5.8,-,N/A,Rain,Light Rain,90,2013-01-05 16:35:00
8:55 AM,39.2,39.2,100,30.17,7.0,East,4.6,-,N/A,Rain,Light Rain,90,2013-01-05 16:55:00
9:15 AM,39.2,39.2,100,30.16,4.0,ENE,8.1,-,0.01,Rain,Rain,70,2013-01-05 17:15:00
9:35 AM,39.2,39.2,100,30.15,3.0,East,6.9,-,0.01,Rain,Light Rain,90,2013-01-05 17:35:00
9:55 AM,41.0,39.2,93,30.14,5.0,Calm,Calm,-,0.01,Rain,Light Rain,0,2013-01-05 17:55:00
10:15 AM,41.0,41.0,100,30.12,4.0,ESE,5.8,-,N/A,Rain,Light Rain,110,2013-01-05 18:15:00
10:35 AM,42.8,41.0,93,30.14,10.0,Calm,Calm,-,N/A,,Partly Cloudy,0,2013-01-05 18:35:00
10:55 AM,44.6,41.0,87,30.11,10.0,North,5.8,-,N/A,,Clear,10,2013-01-05 18:55:00
11:15 AM,44.6,39.2,81,30.11,10.0,Calm,Calm,-,N/A,,Clear,0,2013-01-05 19:15:00
11:35 AM,46.4,41.0,81,30.12,10.0,NNW,9.2,-,N/A,,Clear,340,2013-01-05 19:35:00
11:55 AM,44.6,39.2,81,30.12,10.0,North,5.8,-,N/A,,Partly Cloudy,350,2013-01-05 19:55:00
12:15 PM,44.6,41.0,87,30.12,10.0,North,3.5,-,N/A,,Mostly Cloudy,350,2013-01-05 20:15:00
12:35 PM,44.6,39.2,81,30.11,10.0,NE,4.6,-,N/A,,Partly Cloudy,50,2013-01-05 20:35:00
12:55 PM,44.6,39.2,81,30.09,10.0,SE,4.6,-,N/A,,Clear,130,2013-01-05 20:55:00
1:15 PM,46.4,39.2,76,30.09,10.0,Calm,Calm,-,N/A,,Clear,0,2013-01-05 21:15:00
1:35 PM,46.4,39.2,76,30.08,10.0,SW,5.8,-,N/A,,Clear,220,2013-01-05 21:35:00
1:55 PM,44.6,39.2,81,30.07,10.0,SSE,3.5,-,N/A,,Clear,150,2013-01-05 21:55:00
2:15 PM,46.4,39.2,76,30.06,10.0,South,8.1,17.3,N/A,,Clear,180,2013-01-05 22:15:00
2:35 PM,46.4,39.2,76,30.06,10.0,South,13.8,24.2,N/A,,Clear,190,2013-01-05 22:35:00
3:15 PM,46.4,39.2,76,30.05,10.0,South,13.8,23.0,N/A,,Clear,180,2013-01-05 23:15:00
3:35 PM,46.4,39.2,76,30.04,10.0,South,13.8,25.3,N/A,,Partly Cloudy,180,2013-01-05 23:35:00
3:55 PM,46.4,39.2,76,30.04,10.0,South,15.0,28.8,N/A,,Partly Cloudy,190,2013-01-05 23:55:00
4:15 PM,46.4,39.2,76,30.04,10.0,South,15.0,21.9,N/A,,Mostly Cloudy,190,2013-01-06 00:15:00
4:35 PM,46.4,39.2,76,30.03,10.0,SSW,17.3,26.5,N/A,,Overcast,200,2013-01-06 00:35:00
4:55 PM,46.4,37.4,71,30.03,10.0,South,13.8,23.0,N/A,,Mostly Cloudy,190,2013-01-06 00:55:00
5:15 PM,48.2,37.4,66,30.03,10.0,South,15.0,24.2,N/A,,Mostly Cloudy,190,2013-01-06 01:15:00
5:35 PM,48.2,37.4,66,30.03,10.0,South,15.0,23.0,N/A,,Mostly Cloudy,190,2013-01-06 01:35:00
5:55 PM,48.2,37.4,66,30.03,10.0,South,15.0,24.2,N/A,,Mostly Cloudy,190,2013-01-06 01:55:00
6:15 PM,46.4,37.4,71,30.03,10.0,South,15.0,21.9,N/A,,Overcast,190,2013-01-06 02:15:00
6:55 PM,46.4,39.2,76,30.05,10.0,SSW,10.4,-,N/A,,Mostly Cloudy,210,2013-01-06 02:55:00
7:15 PM,46.4,37.4,71,30.06,10.0,SSW,12.7,17.3,N/A,,Mostly Cloudy,200,2013-01-06 03:15:00
7:35 PM,44.6,39.2,81,30.06,10.0,South,6.9,-,N/A,,Partly Cloudy,190,2013-01-06 03:35:00
7:55 PM,44.6,39.2,81,30.06,10.0,South,9.2,-,N/A,,Clear,190,2013-01-06 03:55:00
8:15 PM,44.6,39.2,81,30.06,10.0,South,4.6,-,N/A,Rain,Light Rain,180,2013-01-06 04:15:00
8:35 PM,44.6,39.2,81,30.06,10.0,South,3.5,-,N/A,,Clear,190,2013-01-06 04:35:00
9:15 PM,44.6,41.0,87,30.06,10.0,SSW,8.1,-,N/A,Rain,Light Rain,200,2013-01-06 05:15:00
9:35 PM,42.8,41.0,93,30.06,10.0,SSW,8.1,-,N/A,,Scattered Clouds,210,2013-01-06 05:35:00
9:55 PM,42.8,41.0,93,30.07,10.0,SSW,8.1,-,N/A,,Overcast,200,2013-01-06 05:55:00
10:15 PM,42.8,41.0,93,30.08,10.0,SSW,6.9,-,N/A,,Overcast,210,2013-01-06 06:15:00
10:35 PM,44.6,41.0,87,30.08,10.0,South,5.8,-,N/A,,Overcast,190,2013-01-06 06:35:00
10:55 PM,42.8,41.0,93,30.08,10.0,South,6.9,-,N/A,,Mostly Cloudy,190,2013-01-06 06:55:00
11:15 PM,41.0,39.2,93,30.08,10.0,SSW,6.9,-,N/A,,Partly Cloudy,200,2013-01-06 07:15:00
11:35 PM,41.0,39.2,93,30.08,10.0,South,3.5,-,N/A,,Clear,180,2013-01-06 07:35:00
11:55 PM,41.0,37.4,87,30.08,10.0,South,3.5,-,N/A,,Clear,170,2013-01-06 07:55:00